SVFLIR Weather Reports


Display with metric or nautical units.
time (UTC)temp
F
wind
direction
speed
MPH
gust
MPH
rain 1hr
in
rain 24hr
in
rain mn
in
humidity
%
barometer
mb
20260506044804 66 272 9.0 12.0 0.00 0.00 0.00 100 1009.4
20260506044044 66 257 8.0 11.0 0.00 0.00 0.00 100 1009.4
20260506043543 66 265 7.0 10.0 0.00 0.00 0.00 100 1009.4
20260506043042 66 275 8.0 11.0 0.00 0.00 0.00 100 1009.4
20260506042543 66 275 6.0 11.0 0.00 0.00 0.00 100 1009.4
20260506042042 67 254 8.0 11.0 0.00 0.00 0.00 100 1009.4
20260506041541 67 258 7.0 10.0 0.00 0.00 0.00 100 1009.4
20260506041300 67 278 7.0 10.0 0.00 0.00 0.00 100 1009.4
20260506040539 67 271 9.0 11.0 0.00 0.00 0.00 100 1009.4
20260506040040 67 255 7.0 14.0 0.00 0.00 0.00 100 1009.4
20260506035539 67 261 9.0 14.0 0.00 0.00 0.00 100 1009.4
20260506035039 67 268 8.0 13.0 0.00 0.00 0.00 100 1009.4
20260506034538 67 248 9.0 15.0 0.00 0.00 0.00 100 1009.4
20260506034037 67 264 10.0 15.0 0.00 0.00 0.00 100 1009.4
20260506033754 67 268 9.0 13.0 0.00 0.00 0.00 100 1009.4
20260506033036 68 253 10.0 14.0 0.00 0.00 0.00 100 1009.4
20260506032535 68 257 8.0 14.0 0.00 0.00 0.00 100 1009.4
20260506032034 68 265 8.0 17.0 0.00 0.00 0.00 100 1009.4
20260506031534 68 250 9.0 18.0 0.00 0.00 0.00 100 1009.4
20260506031033 68 250 13.0 18.0 0.00 0.00 0.00 100 1009.4
20260506030532 68 255 14.0 17.0 0.00 0.00 0.00 100 1009.4
20260506030032 68 251 9.0 16.0 0.00 0.00 0.00 100 1009.4
20260506025532 68 253 12.0 16.0 0.00 0.00 0.00 100 1009.4
20260506025031 68 257 10.0 16.0 0.00 0.00 0.00 100 1009.4
20260506024530 69 216 9.0 16.0 0.00 0.00 0.00 100 1009.4
20260506024030 68 225 10.0 16.0 0.00 0.00 0.00 100 1009.4
20260506023529 69 248 10.0 17.0 0.00 0.00 0.00 100 1009.4
20260506023028 69 241 7.0 19.0 0.00 0.00 0.00 100 1009.4
20260506022528 69 267 13.0 19.0 0.00 0.00 0.00 100 1009.4
20260506022027 69 253 14.0 19.0 0.00 0.00 0.00 100 1009.4
20260506021748 70 247 13.0 19.0 0.00 0.00 0.00 100 1009.4
20260506021026 69 229 11.0 21.0 0.00 0.00 0.00 100 1009.4
20260506020526 70 232 12.0 21.0 0.00 0.00 0.00 100 1009.4
20260506020025 70 233 13.0 21.0 0.00 0.00 0.00 100 1009.4
20260506015525 70 260 13.0 21.0 0.00 0.00 0.00 100 1009.4
20260506015024 71 237 14.0 21.0 0.00 0.00 0.00 100 1009.4
20260506014523 71 220 13.0 18.0 0.00 0.00 0.00 100 1009.4
20260506014023 70 247 11.0 17.0 0.00 0.00 0.00 100 1009.4
20260506013522 71 244 11.0 17.0 0.00 0.00 0.00 100 1009.4
20260506013021 71 258 11.0 19.0 0.00 0.00 0.00 100 1009.4
20260506012521 71 220 12.0 19.0 0.00 0.00 0.00 100 1009.4
20260506012246 72 251 11.0 17.0 0.00 0.00 0.00 100 1009.4
20260506011740 72 237 10.0 16.0 0.00 0.00 0.00 100 1009.4
20260506011019 72 265 11.0 22.0 0.00 0.00 0.00 100 1009.4
20260506010519 72 270 11.0 22.0 0.00 0.00 0.00 100 1009.4
20260506010238 72 262 11.0 23.0 0.00 0.00 0.00 100 1009.4
20260506005517 72 246 15.0 23.0 0.00 0.00 0.00 100 1009.4
20260506005017 73 239 16.0 24.0 0.00 0.00 0.00 100 1009.4
20260506004517 73 264 13.0 24.0 0.00 0.00 0.00 100 1009.4
20260506004016 72 258 16.0 24.0 0.00 0.00 0.00 100 1009.4
20260506003515 72 262 12.0 24.0 0.00 0.00 0.00 100 1009.4
20260506003014 72 257 14.0 24.0 0.00 0.00 0.00 100 1009.4
20260506002514 72 237 11.0 18.0 0.00 0.00 0.00 100 1009.4
20260506002014 72 253 12.0 22.0 0.00 0.00 0.00 100 1009.4
20260506001739 73 234 11.0 22.0 0.00 0.00 0.00 100 1009.4
20260506001231 73 251 11.0 19.0 0.00 0.00 0.00 100 1009.4
20260506000731 74 236 15.0 22.0 0.00 0.00 0.00 100 1009.4
20260506000237 72 217 11.0 22.0 0.00 0.00 0.00 100 1009.4
20260505235510 72 272 15.0 19.0 0.00 0.00 0.00 100 1009.4
20260505235010 72 277 9.0 23.0 0.00 0.00 0.00 100 1009.4
20260505234510 73 227 10.0 23.0 0.00 0.00 0.00 100 1009.4
20260505234009 72 230 14.0 23.0 0.00 0.00 0.00 100 1009.4
20260505233508 72 257 10.0 22.0 0.00 0.00 0.00 100 1009.4
20260505233008 72 248 15.0 21.0 0.00 0.00 0.00 100 1009.4
20260505232507 73 237 8.0 21.0 0.00 0.00 0.00 100 1009.4
20260505232006 73 236 15.0 22.0 0.00 0.00 0.00 100 1009.4
20260505231506 73 216 9.0 22.0 0.00 0.00 0.00 100 1009.4
20260505231006 73 292 16.0 23.0 0.00 0.00 0.00 100 1009.4
20260505230505 73 241 15.0 23.0 0.00 0.00 0.00 100 1009.4
20260505230004 72 239 15.0 23.0 0.00 0.00 0.00 100 1009.4
20260505225727 73 208 11.0 25.0 0.00 0.00 0.00 100 1009.4
20260505225003 72 243 15.0 26.0 0.00 0.00 0.00 100 1009.4
20260505224729 73 247 11.0 26.0 0.00 0.00 0.00 100 1009.4
20260505224001 72 219 15.0 25.0 0.00 0.00 0.00 100 1009.4
20260505223729 73 223 14.0 23.0 0.00 0.00 0.00 100 1009.4
20260505223000 72 274 16.0 20.0 0.00 0.00 0.00 100 1009.4
20260505222500 72 237 10.0 24.0 0.00 0.00 0.00 100 1009.4
20260505221959 72 250 10.0 24.0 0.00 0.00 0.00 100 1009.4
20260505221459 72 251 11.0 21.0 0.00 0.00 0.00 100 1009.4
20260505220959 72 248 13.0 21.0 0.00 0.00 0.00 100 1009.4
20260505220723 73 255 13.0 21.0 0.00 0.00 0.00 100 1009.4
20260505215957 73 261 10.0 19.0 0.00 0.00 0.00 100 1009.4
20260505215456 72 239 14.0 23.0 0.00 0.00 0.00 100 1009.4
20260505214956 73 279 8.0 23.0 0.00 0.00 0.00 100 1009.4
20260505214455 74 232 13.0 24.0 0.00 0.00 0.00 100 1009.4
20260505213954 74 265 11.0 24.0 0.00 0.00 0.00 100 1009.4
20260505213454 74 246 4.0 20.0 0.00 0.00 0.00 100 1009.4
20260505212954 72 262 10.0 23.0 0.00 0.00 0.00 100 1009.4
20260505212453 74 279 11.0 23.0 0.00 0.00 0.00 100 1009.4
20260505211952 74 213 10.0 21.0 0.00 0.00 0.00 100 1009.4
20260505211451 74 201 15.0 19.0 0.00 0.00 0.00 100 1009.4
20260505210951 74 241 13.0 22.0 0.00 0.00 0.00 100 1009.4
20260505210451 74 272 7.0 22.0 0.00 0.00 0.00 100 1009.4
20260505210209 72 219 12.0 21.0 0.00 0.00 0.00 100 1009.4
20260505205449 73 254 12.0 20.0 0.00 0.00 0.00 100 1009.4
20260505204948 74 278 14.0 19.0 0.00 0.00 0.00 100 1009.4
20260505204448 74 246 8.0 20.0 0.00 0.00 0.00 100 1009.4
20260505204210 73 265 11.0 20.0 0.00 0.00 0.00 100 1009.4
20260505203447 73 261 9.0 20.0 0.00 0.00 0.00 100 1009.4
20260505202947 72 247 11.0 21.0 0.00 0.00 0.00 100 1009.4
20260505202716 71 219 14.0 21.0 0.00 0.00 0.00 100 1009.4
20260505201945 72 240 13.0 20.0 0.00 0.00 0.00 100 1009.4
20260505201444 71 278 11.0 20.0 0.00 0.00 0.00 100 1009.4
20260505201209 69 274 13.0 20.0 0.00 0.00 0.00 100 1009.4
20260505195943 71 250 12.0 22.0 0.00 0.00 0.00 100 1009.4
20260505195704 71 246 17.0 21.0 0.00 0.00 0.00 100 1009.4
20260505195207 71 258 11.0 31.0 0.00 0.00 0.00 100 1009.4
20260505194441 72 210 9.0 31.0 0.00 0.00 0.00 100 1009.4
20260505193940 71 310 9.0 24.0 0.00 0.00 0.00 100 1009.4
20260505193440 71 248 7.0 24.0 0.00 0.00 0.00 100 1009.4
20260505192939 71 278 18.0 23.0 0.00 0.00 0.00 100 1009.4
20260505192657 71 233 13.0 22.0 0.00 0.00 0.00 100 1009.4
20260505191939 72 202 10.0 22.0 0.00 0.00 0.00 100 1009.4
20260505191438 71 240 14.0 21.0 0.00 0.00 0.00 100 1009.4
20260505190937 69 286 4.0 18.0 0.00 0.00 0.00 100 1009.4
20260505190436 71 220 10.0 19.0 0.00 0.00 0.00 100 1009.4
20260505185435 68 229 14.0 19.0 0.00 0.00 0.00 100 1009.4
20260505184935 70 261 5.0 16.0 0.00 0.00 0.00 100 1009.4
20260505184434 70 274 7.0 18.0 0.00 0.00 0.00 100 1009.4
20260505183933 66 281 12.0 18.0 0.00 0.00 0.00 100 1009.4
20260505183433 69 275 11.0 18.0 0.00 0.00 0.00 100 1009.4
20260505183159 67 270 9.0 20.0 0.00 0.00 0.00 100 1009.4
20260505182431 69 253 14.0 20.0 0.00 0.00 0.00 100 1009.4
20260505181932 70 241 13.0 20.0 0.00 0.00 0.00 100 1009.4
20260505181430 68 268 13.0 16.0 0.00 0.00 0.00 100 1009.4
20260505181149 69 239 7.0 17.0 0.00 0.00 0.00 100 1009.4
20260505180429 68 175 8.0 17.0 0.00 0.00 0.00 100 1009.4
20260505180146 67 209 10.0 17.0 0.00 0.00 0.00 100 1009.4
20260505175428 67 257 10.0 17.0 0.00 0.00 0.00 100 1009.4
20260505174927 67 255 10.0 18.0 0.00 0.00 0.00 100 1009.4
20260505174426 68 251 9.0 18.0 0.00 0.00 0.00 100 1009.4
20260505173926 68 230 12.0 18.0 0.00 0.00 0.00 100 1009.4
20260505173425 68 196 6.0 15.0 0.00 0.00 0.00 100 1009.4
20260505172924 68 264 12.0 14.0 0.00 0.00 0.00 100 1009.4
20260505172425 68 254 6.0 11.0 0.00 0.00 0.00 100 1009.4
20260505171924 68 194 9.0 14.0 0.00 0.00 0.00 100 1009.4
20260505171423 66 267 6.0 16.0 0.00 0.00 0.00 100 1009.4
20260505170922 65 253 11.0 16.0 0.00 0.00 0.00 100 1009.4
20260505170422 65 233 10.0 13.0 0.00 0.00 0.00 100 1009.4
20260505165921 66 253 10.0 15.0 0.00 0.00 0.00 100 1009.4
20260505165421 65 246 6.0 15.0 0.00 0.00 0.00 100 1009.4
20260505164920 66 257 11.0 15.0 0.00 0.00 0.00 100 1009.4
20260505164419 67 243 9.0 14.0 0.00 0.00 0.00 100 1009.4
20260505163919 67 289 8.0 12.0 0.00 0.00 0.00 100 1009.4
20260505163418 67 229 7.0 12.0 0.00 0.00 0.00 100 1009.4
20260505163144 66 255 7.0 13.0 0.00 0.00 0.00 100 1009.4
20260505162417 67 257 7.0 13.0 0.00 0.00 0.00 100 1009.4
20260505162144 67 248 10.0 13.0 0.00 0.00 0.00 100 1009.4
20260505161415 64 208 4.0 11.0 0.00 0.00 0.00 100 1009.4
20260505160915 63 220 7.0 11.0 0.00 0.00 0.00 100 1009.4
20260505160415 63 264 8.0 11.0 0.00 0.00 0.00 100 1009.4
20260505152911 61 271 10.0 13.0 0.00 0.00 0.00 100 1009.4
20260505152410 61 248 9.0 13.0 0.00 0.00 0.00 100 1009.4
20260505151909 62 227 8.0 13.0 0.00 0.00 0.00 100 1009.4
20260505151409 61 234 8.0 15.0 0.00 0.00 0.00 100 1009.4
20260505150908 61 255 9.0 15.0 0.00 0.00 0.00 100 1009.4
20260505150407 61 255 7.0 13.0 0.00 0.00 0.00 100 1009.4
20260505140400 60 227 6.0 9.0 0.00 0.00 0.00 100 1009.4
20260505130116 58 215 4.0 10.0 0.00 0.00 0.00 100 1009.4
20260505124847 58 194 7.0 11.0 0.00 0.00 0.00 100 1009.4
20260505124346 58 181 7.0 11.0 0.00 0.00 0.00 100 1009.4
20260505124114 58 161 4.0 9.0 0.00 0.00 0.00 100 1009.4
20260505123345 57 171 7.0 9.0 0.00 0.00 0.00 100 1009.4
20260505123104 57 171 2.0 8.0 0.00 0.00 0.00 100 1009.4
20260505122344 57 171 4.0 7.0 0.00 0.00 0.00 100 1009.4
20260505121844 56 182 1.0 7.0 0.00 0.00 0.00 100 1009.4
20260505121343 56 170 5.0 9.0 0.00 0.00 0.00 100 1009.4
20260505120842 56 182 5.0 9.0 0.00 0.00 0.00 100 1009.4
20260505120342 56 163 4.0 8.0 0.00 0.00 0.00 100 1009.4
20260505115841 56 171 6.0 8.0 0.00 0.00 0.00 100 1009.4
20260505115340 56 164 4.0 6.0 0.00 0.00 0.00 100 1009.4
20260505114839 56 192 4.0 8.0 0.00 0.00 0.00 100 1009.4
20260505114339 55 194 4.0 8.0 0.00 0.00 0.00 100 1009.4
20260505113838 56 171 3.0 9.0 0.00 0.00 0.00 100 1009.4
20260505112837 56 171 4.0 9.0 0.00 0.00 0.00 100 1009.4
20260505112337 56 153 5.0 9.0 0.00 0.00 0.00 100 1009.4
20260505111836 55 164 5.0 8.0 0.00 0.00 0.00 100 1009.4
20260505111335 56 150 4.0 9.0 0.00 0.00 0.00 100 1009.4
20260505110835 57 164 6.0 10.0 0.00 0.00 0.00 100 1009.4
20260505110334 57 164 7.0 12.0 0.00 0.00 0.00 100 1009.4
20260505101829 58 168 1.0 6.0 0.00 0.00 0.00 100 1009.4
20260505101328 60 109 2.0 8.0 0.00 0.00 0.00 100 1009.4
20260505100825 58 195 4.0 8.0 0.00 0.00 0.00 100 1009.4
20260505100549 59 244 4.0 9.0 0.00 0.00 0.00 100 1009.4
20260505095825 62 265 4.0 10.0 0.00 0.00 0.00 100 1009.4
20260505095324 63 232 6.0 11.0 0.00 0.00 0.00 100 1009.4
20260505094823 65 205 8.0 11.0 0.00 0.00 0.00 100 1009.4
20260505094323 65 225 7.0 9.0 0.00 0.00 0.00 100 1009.4
20260505093822 65 233 6.0 11.0 0.00 0.00 0.00 100 1009.4
20260505093321 65 243 6.0 12.0 0.00 0.00 0.00 100 1009.4
20260505092821 65 241 8.0 12.0 0.00 0.00 0.00 100 1009.4
20260505092320 65 254 4.0 11.0 0.00 0.00 0.00 100 1009.4
20260505091819 65 223 6.0 11.0 0.00 0.00 0.00 100 1009.4
20260505091319 65 262 9.0 11.0 0.00 0.00 0.00 100 1009.4
20260505090818 66 284 5.0 12.0 0.00 0.00 0.00 100 1009.4
20260505090317 65 230 7.0 12.0 0.00 0.00 0.00 100 1009.4
20260505085817 65 229 6.0 16.0 0.00 0.00 0.00 100 1009.4
20260505085317 65 236 9.0 16.0 0.00 0.00 0.00 100 1009.4
20260505085042 66 246 8.0 17.0 0.00 0.00 0.00 100 1009.4
20260505084315 66 247 13.0 17.0 0.00 0.00 0.00 100 1009.4
20260505083815 66 230 12.0 19.0 0.00 0.00 0.00 100 1009.4
20260505083314 66 250 11.0 19.0 0.00 0.00 0.00 100 1009.4
20260505082813 67 236 11.0 15.0 0.00 0.00 0.00 100 1009.4
20260505082313 67 230 9.0 15.0 0.00 0.00 0.00 100 1009.4
20260505081812 67 236 10.0 15.0 0.00 0.00 0.00 100 1009.4
20260505080810 67 226 8.0 13.0 0.00 0.00 0.00 100 1009.4
20260505075810 67 212 7.0 13.0 0.00 0.00 0.00 100 1009.4
20260505075309 67 260 5.0 14.0 0.00 0.00 0.00 100 1009.4
20260505075033 67 225 9.0 14.0 0.00 0.00 0.00 100 1009.4
20260505074308 67 225 9.0 14.0 0.00 0.00 0.00 100 1009.4
20260505073808 68 255 9.0 15.0 0.00 0.00 0.00 100 1009.4
20260505073307 68 248 9.0 15.0 0.00 0.00 0.00 100 1009.4
20260505073025 68 247 10.0 14.0 0.00 0.00 0.00 100 1009.4
20260505072306 68 240 9.0 13.0 0.00 0.00 0.00 100 1009.4
20260505071805 68 260 9.0 11.0 0.00 0.00 0.00 100 1009.4
20260505071304 68 260 9.0 12.0 0.00 0.00 0.00 100 1009.4
20260505070804 68 255 9.0 13.0 0.00 0.00 0.00 100 1009.4
20260505070303 68 258 9.0 15.0 0.00 0.00 0.00 100 1009.4
20260505065803 68 247 11.0 15.0 0.00 0.00 0.00 100 1009.4
20260505065304 68 272 8.0 14.0 0.00 0.00 0.00 100 1009.4
20260505064801 68 265 7.0 15.0 0.00 0.00 0.00 100 1009.4
20260505064301 68 248 11.0 15.0 0.00 0.00 0.00 100 1009.4
20260505063800 68 260 11.0 13.0 0.00 0.00 0.00 100 1009.4
20260505063259 68 244 9.0 11.0 0.00 0.00 0.00 100 1009.4
20260505062800 68 284 6.0 12.0 0.00 0.00 0.00 100 1009.4
20260505062523 68 258 9.0 12.0 0.00 0.00 0.00 100 1009.4
20260505061758 68 268 8.0 11.0 0.00 0.00 0.00 100 1009.4
20260505061257 68 260 7.0 10.0 0.00 0.00 0.00 100 1009.4
20260505060757 68 248 8.0 10.0 0.00 0.00 0.00 100 1009.4
20260505060256 68 277 4.0 9.0 0.00 0.00 0.00 100 1009.4
20260505055756 68 255 7.0 10.0 0.00 0.00 0.00 100 1009.4
20260505055255 68 293 4.0 10.0 0.00 0.00 0.00 100 1009.4
20260505054754 69 264 8.0 10.0 0.00 0.00 0.00 100 1009.4
20260505054254 68 275 4.0 9.0 0.00 0.00 0.00 100 1009.4
20260505054017 69 254 6.0 9.0 0.00 0.00 0.00 100 1009.4
20260505053252 69 229 6.0 9.0 0.00 0.00 0.00 100 1009.4
20260505052252 69 241 5.0 11.0 0.00 0.00 0.00 100 1009.4
20260505051751 69 260 8.0 11.0 0.00 0.00 0.00 100 1009.4
20260505051514 69 264 7.0 11.0 0.00 0.00 0.00 100 1009.4
20260505051008 69 239 6.0 10.0 0.00 0.00 0.00 100 1009.4
20260505050249 69 264 6.0 10.0 0.00 0.00 0.00 100 1009.4